period_start,C,m1,H,J0,J1,J2,J3,J4,J5,JA,JB,JC,JD,JJ,JK,JN,#
2016-05-31 00:00:32,0.02,0.97,0.00,26.05,29.35,31.96,14.20,47.98,1011.80,2028.97,3117.61,2859.00,3243.92,599.92,587.09,30.57,0000 0000 0000 0000 000000
2016-05-31 00:05:33,0.05,0.97,0.00,26.07,29.36,31.96,14.25,47.95,1011.75,2028.95,3116.70,2858.32,3243.10,599.79,586.82,30.62,0000 0000 0000 0000 000000
2016-05-31 00:10:35,0.02,0.97,0.00,26.06,29.37,31.97,14.26,47.98,1011.72,2028.97,3115.85,2857.92,3242.51,600.25,587.37,30.67,0000 0000 0000 0000 000000
2016-05-31 00:15:36,0.06,0.98,0.00,26.07,29.37,31.99,14.17,48.02,1011.54,2028.94,3114.67,2857.08,3241.67,599.84,586.65,30.72,0000 0000 0000 0000 000000
2016-05-31 00:20:37,0.05,0.98,0.00,26.08,29.39,31.98,14.21,48.02,1011.67,2028.92,3113.54,2856.34,3240.95,599.86,586.87,30.77,0000 0000 0000 0000 000000
2016-05-31 00:25:38,-0.00,0.98,0.00,26.09,29.40,31.99,14.29,48.02,1011.73,2028.71,3112.93,2855.96,3240.13,600.15,587.14,30.82,0000 0000 0000 0000 000000
2016-05-31 00:30:40,0.03,0.98,0.00,26.09,29.40,32.01,14.19,48.02,1011.61,2028.37,3111.92,2855.26,3239.59,599.88,586.95,30.87,0000 0000 0000 0000 000000
2016-05-31 00:35:41,0.09,0.98,0.00,26.12,29.40,32.00,14.19,48.00,1011.30,2028.56,3110.75,2854.54,3238.69,600.08,586.71,30.92,0000 0000 0000 0000 000000
2016-05-31 00:40:42,0.08,0.99,0.00,26.12,29.42,32.01,14.25,48.03,1011.26,2028.70,3109.28,2853.55,3237.55,600.02,586.72,30.97,0000 0000 0000 0000 000000
2016-05-31 00:45:44,0.05,0.99,0.00,26.15,29.42,32.01,14.15,48.06,1011.14,2028.60,3107.76,2852.41,3236.30,599.41,586.07,31.02,0000 0000 0000 0000 000000
2016-05-31 00:50:45,0.05,0.99,0.00,26.17,29.42,32.02,14.15,48.03,1011.05,2028.35,3106.79,2851.63,3235.25,599.88,586.34,31.07,0000 0000 0000 0000 000000
2016-05-31 00:55:46,0.01,0.99,0.00,26.18,29.44,32.02,14.24,47.99,1011.22,2028.21,3105.97,2850.99,3234.43,599.90,586.48,31.12,0000 0000 0000 0000 000000
2016-05-31 01:00:47,0.03,1.00,0.00,26.21,29.45,32.03,14.18,47.93,1010.91,2028.14,3105.14,2850.32,3233.96,599.79,586.14,31.17,0000 0000 0000 0000 000000
2016-05-31 01:05:48,0.03,1.00,0.00,26.24,29.45,32.06,14.21,47.90,1010.76,2028.09,3104.48,2849.93,3233.18,599.89,586.03,31.22,0000 0000 0000 0000 000000
2016-05-31 01:10:49,0.04,1.00,0.00,26.26,29.47,32.06,14.13,47.85,1010.76,2028.04,3103.66,2849.17,3232.65,599.69,585.86,31.27,0000 0000 0000 0000 000000
2016-05-31 01:15:51,0.02,1.00,0.00,26.28,29.47,32.05,14.20,47.92,1010.48,2028.02,3102.87,2848.91,3232.02,600.15,586.06,31.32,0000 0000 0000 0000 000000
2016-05-31 01:20:52,0.05,1.00,0.00,26.30,29.48,32.06,14.28,47.98,1010.31,2028.00,3102.05,2848.11,3231.33,600.22,586.02,31.37,0000 0000 0000 0000 000000
2016-05-31 01:25:53,0.01,1.00,0.00,26.33,29.50,32.07,14.27,47.91,1010.47,2028.00,3101.40,2847.96,3230.95,600.12,585.98,31.42,0000 0000 0000 0000 000000
2016-05-31 01:30:54,0.06,1.01,0.00,26.34,29.50,32.09,14.20,47.80,1010.28,2028.00,3100.52,2847.20,3230.12,599.85,585.60,31.47,0000 0000 0000 0000 000000
2016-05-31 01:35:56,0.05,1.01,0.00,26.34,29.51,32.10,14.21,47.80,1010.28,2028.00,3099.34,2846.49,3229.34,599.89,585.75,31.52,0000 0000 0000 0000 000000
2016-05-31 01:40:57,0.07,1.01,0.00,26.37,29.52,32.12,14.24,47.89,1010.39,2027.99,3097.77,2845.67,3228.35,600.09,585.83,31.57,0000 0000 0000 0000 000000
2016-05-31 01:45:59,0.04,1.02,0.00,26.39,29.54,32.12,14.14,47.88,1010.73,2027.97,3096.38,2845.00,3227.51,599.94,585.93,31.62,0000 0000 0000 0000 000000
2016-05-31 01:51:00,0.03,1.02,0.00,26.39,29.55,32.11,14.18,47.88,1010.76,2027.97,3095.81,2844.53,3227.00,599.92,585.72,31.67,0000 0000 0000 0000 000000
2016-05-31 01:56:01,0.02,1.02,0.00,26.41,29.56,32.13,14.24,47.84,1010.76,2027.92,3094.97,2844.00,3226.45,599.93,585.79,31.72,0000 0000 0000 0000 000000
2016-05-31 02:01:03,0.10,1.02,0.00,26.42,29.57,32.13,14.23,47.85,1010.72,2027.82,3092.66,2842.97,3225.25,599.94,585.76,31.77,0000 0000 0000 0000 000000
2016-05-31 02:06:04,0.06,1.03,0.00,26.44,29.58,32.16,14.15,47.85,1010.76,2027.45,3089.93,2841.76,3223.83,599.74,585.54,31.82,0000 0000 0000 0000 000000
2016-05-31 02:11:05,0.08,1.03,0.00,26.45,29.60,32.17,14.20,47.83,1010.47,2027.15,3087.43,2840.65,3222.53,599.80,585.40,31.87,0000 0000 0000 0000 000000
2016-05-31 02:16:06,0.17,1.04,0.00,26.46,29.60,32.15,14.26,47.92,1010.37,2027.03,3082.88,2838.71,3220.33,600.11,585.67,31.92,0000 0000 0000 0000 000000
2016-05-31 02:21:08,0.07,1.04,0.00,26.47,29.62,32.17,14.18,47.77,1010.30,2027.01,3080.18,2837.52,3219.01,600.06,585.49,31.97,0000 0000 0000 0000 000000
2016-05-31 02:26:09,0.06,1.05,0.00,26.49,29.62,32.17,14.19,47.75,1010.29,2027.00,3078.65,2836.74,3217.97,600.05,585.52,32.02,0000 0000 0000 0000 000000
2016-05-31 02:31:10,0.48,1.07,0.00,26.52,29.65,32.17,14.17,47.75,1010.27,2027.00,3068.10,2832.23,3212.98,599.56,584.94,32.07,0000 0000 0000 0000 000000
2016-05-31 02:36:11,0.18,1.08,0.00,26.54,29.65,32.22,14.24,47.77,1010.26,2027.00,3062.29,2829.62,3210.02,600.19,585.46,32.12,0000 0000 0000 0000 000000
2016-05-31 02:41:13,0.11,1.09,0.00,26.56,29.67,32.22,14.14,47.86,1010.17,2027.00,3058.79,2827.98,3208.21,600.10,585.25,32.17,0000 0000 0000 0000 000000
2016-05-31 02:46:14,0.13,1.09,0.00,26.57,29.69,32.23,14.15,47.81,1009.89,2026.98,3055.95,2826.48,3206.53,599.80,584.84,32.22,0000 0000 0000 0000 000000
2016-05-31 02:51:16,0.49,1.11,0.00,26.61,29.70,32.24,14.14,47.74,1009.80,2026.96,3045.39,2822.09,3201.57,599.73,584.67,32.28,0000 0000 0000 0000 000000
2016-05-31 02:56:17,0.34,1.13,0.00,26.62,29.72,32.26,14.22,47.83,1009.79,2026.92,3034.29,2817.51,3196.53,600.04,584.92,32.33,0000 0000 0000 0000 000000
2016-05-31 03:01:18,0.08,1.14,0.00,26.66,29.74,32.30,14.20,47.80,1009.78,2026.74,3030.35,2815.78,3194.48,599.84,584.66,32.38,0000 0000 0000 0000 000000
2016-05-31 03:06:19,0.01,1.14,0.00,26.71,29.75,32.30,14.12,47.81,1009.67,2026.28,3028.80,2814.99,3193.40,599.58,584.08,32.43,0000 0000 0000 0000 000000
2016-05-31 03:11:21,0.03,1.14,0.00,26.75,29.77,32.31,14.18,47.82,1009.38,2026.10,3028.02,2814.25,3192.93,600.24,584.63,32.48,0000 0000 0000 0000 000000
2016-05-31 03:16:22,0.03,1.15,0.00,26.78,29.79,32.33,14.16,47.80,1009.50,2026.04,3027.19,2813.98,3192.11,599.77,584.19,32.53,0000 0000 0000 0000 000000
2016-05-31 03:21:23,0.05,1.15,0.00,26.81,29.81,32.35,14.11,47.77,1009.34,2026.01,3026.42,2813.22,3191.51,600.32,584.56,32.58,0000 0000 0000 0000 000000
2016-05-31 03:26:25,0.07,1.15,0.00,26.86,29.83,32.39,14.15,47.83,1009.31,2026.00,3025.23,2812.34,3190.41,599.96,584.10,32.63,0000 0000 0000 0000 000000
2016-05-31 03:31:26,0.05,1.15,0.00,26.88,29.86,32.41,14.10,47.80,1009.30,2026.00,3024.22,2811.61,3189.51,599.90,584.04,32.68,0000 0000 0000 0000 000000
2016-05-31 03:36:27,0.11,1.16,0.00,26.91,29.88,32.43,14.17,47.77,1009.30,2025.98,3022.06,2810.45,3188.23,600.05,584.08,32.73,0000 0000 0000 0000 000000
2016-05-31 03:41:29,0.18,1.17,0.00,26.95,29.91,32.46,14.21,47.87,1009.30,2025.96,3017.32,2808.40,3185.89,600.00,583.96,32.78,0000 0000 0000 0000 000000
2016-05-31 03:46:30,0.15,1.18,0.00,26.98,29.93,32.49,14.18,47.88,1009.31,2025.78,3012.95,2806.51,3183.70,599.81,583.65,32.83,0000 0000 0000 0000 000000
2016-05-31 03:51:31,0.11,1.18,0.00,27.00,29.96,32.51,14.12,47.83,1009.32,2025.33,3009.00,2804.56,3181.51,599.72,583.60,32.88,0000 0000 0000 0000 000000
2016-05-31 03:56:33,0.11,1.19,0.00,27.03,29.98,32.54,14.12,47.77,1009.13,2025.10,3005.72,2802.92,3179.64,600.20,583.90,32.93,0000 0000 0000 0000 000000
2016-05-31 04:01:34,0.17,1.20,0.00,27.07,30.01,32.58,14.13,47.83,1008.80,2025.02,3001.77,2801.09,3177.58,599.77,583.30,32.98,0000 0000 0000 0000 000000
2016-05-31 04:06:35,0.23,1.21,0.00,27.09,30.03,32.60,14.17,47.81,1008.80,2025.00,2996.37,2798.80,3174.93,599.94,583.31,33.03,0000 0000 0000 0000 000000
2016-05-31 04:11:37,0.24,1.22,0.00,27.11,30.06,32.63,14.14,47.83,1008.71,2025.00,2989.72,2795.93,3171.77,600.31,583.55,33.08,0000 0000 0000 0000 000000
2016-05-31 04:16:38,0.24,1.23,0.00,27.15,30.08,32.65,14.19,47.93,1008.76,2025.00,2983.20,2793.09,3168.64,599.94,583.19,33.13,0000 0000 0000 0000 000000
2016-05-31 04:21:40,0.06,1.24,0.00,27.17,30.11,32.68,14.06,47.77,1008.51,2024.96,2980.83,2792.01,3167.23,600.10,583.00,33.19,0000 0000 0000 0000 000000
2016-05-31 04:26:41,0.05,1.24,0.00,27.19,30.13,32.71,14.18,47.70,1008.30,2024.94,2979.94,2791.30,3166.57,600.30,583.28,33.24,0000 0000 0000 0000 000000
2016-05-31 04:31:42,-0.01,1.24,0.00,27.23,30.16,32.73,14.11,47.70,1008.28,2024.54,2979.03,2790.75,3165.85,599.75,582.62,33.29,0000 0000 0000 0000 000000
2016-05-31 04:36:43,0.03,1.24,0.00,27.24,30.18,32.76,14.20,47.77,1008.32,2024.21,2978.13,2790.04,3165.06,600.24,583.21,33.34,0000 0000 0000 0000 000000
2016-05-31 04:41:45,0.04,1.24,0.00,27.27,30.21,32.80,14.11,47.77,1008.32,2024.10,2977.39,2789.64,3164.49,600.35,583.03,33.39,0000 0000 0000 0000 000000
2016-05-31 04:46:46,0.02,1.25,0.00,27.31,30.24,32.82,14.12,47.80,1008.28,2024.01,2976.70,2789.02,3163.93,599.68,582.35,33.44,0000 0000 0000 0000 000000
2016-05-31 04:51:47,0.05,1.25,0.00,27.33,30.26,32.84,14.13,47.75,1008.22,2024.00,2975.89,2788.40,3163.10,600.12,582.70,33.49,0000 0000 0000 0000 000000
2016-05-31 04:56:48,0.04,1.25,0.00,27.36,30.29,32.87,14.07,47.78,1008.10,2024.00,2974.92,2787.88,3162.38,599.81,582.21,33.54,0000 0000 0000 0000 000000
2016-05-31 05:01:49,0.05,1.25,0.00,27.38,30.32,32.91,14.06,47.69,1007.84,2023.99,2973.99,2787.06,3161.72,599.63,582.19,33.59,0000 0000 0000 0000 000000
2016-05-31 05:06:51,0.05,1.25,0.00,27.41,30.35,32.93,14.17,47.70,1007.84,2023.98,2973.05,2786.40,3160.86,600.49,582.65,33.64,0000 0000 0000 0000 000000
2016-05-31 05:11:52,0.04,1.26,0.00,27.43,30.37,32.95,14.08,47.82,1007.83,2023.92,2972.07,2785.71,3160.01,599.87,582.01,33.69,0000 0000 0000 0000 000000
2016-05-31 05:16:53,0.03,1.26,0.00,27.46,30.40,32.98,14.15,47.77,1007.67,2023.82,2971.05,2785.02,3159.12,600.19,582.20,33.74,0000 0000 0000 0000 000000
2016-05-31 05:21:54,0.02,1.26,0.00,27.48,30.43,33.02,14.11,47.65,1007.62,2023.41,2970.03,2784.18,3158.21,600.36,582.31,33.79,0000 0000 0000 0000 000000
2016-05-31 05:26:55,0.03,1.26,0.00,27.50,30.46,33.02,14.03,47.64,1007.77,2023.13,2969.10,2783.68,3157.41,599.90,582.00,33.84,0000 0000 0000 0000 000000
2016-05-31 05:31:56,0.03,1.26,0.00,27.52,30.49,33.06,14.16,47.73,1007.78,2023.02,2968.26,2782.93,3156.70,599.75,581.72,33.89,0000 0000 0000 0000 000000
2016-05-31 05:36:58,0.05,1.27,0.00,27.54,30.51,33.08,14.11,47.75,1007.73,2023.00,2967.26,2782.08,3155.85,600.27,582.16,33.94,0000 0000 0000 0000 000000
2016-05-31 05:41:59,0.05,1.27,0.00,27.56,30.54,33.11,14.08,47.63,1007.48,2023.00,2966.47,2781.60,3155.04,599.75,581.52,33.99,0000 0000 0000 0000 000000
2016-05-31 05:47:00,0.03,1.27,0.00,27.58,30.56,33.13,14.05,47.71,1007.70,2022.95,2965.69,2781.00,3154.34,599.89,581.75,34.04,0000 0000 0000 0000 000000
2016-05-31 05:52:01,0.02,1.27,0.00,27.61,30.59,33.17,14.14,47.63,1007.81,2022.71,2964.86,2780.25,3153.76,600.20,582.01,34.09,0000 0000 0000 0000 000000
2016-05-31 05:57:03,-0.01,1.27,0.00,27.63,30.62,33.19,14.04,47.62,1007.65,2022.36,2964.04,2779.96,3153.03,599.94,581.63,34.14,0000 0000 0000 0000 000000
2016-05-31 06:02:04,0.04,1.27,0.00,27.65,30.64,33.21,14.06,47.68,1007.36,2022.09,2963.24,2779.20,3152.40,599.98,581.48,34.20,0000 0000 0000 0000 000000
2016-05-31 06:07:05,0.04,1.28,0.00,27.67,30.67,33.24,14.06,47.63,1007.34,2022.03,2962.31,2778.70,3151.67,599.78,581.23,34.25,0000 0000 0000 0000 000000
2016-05-31 06:12:07,0.04,1.28,0.00,27.69,30.69,33.26,14.07,47.63,1007.34,2022.01,2961.08,2777.97,3150.88,599.98,581.33,34.30,0000 0000 0000 0000 000000
2016-05-31 06:17:08,0.06,1.28,0.00,27.71,30.72,33.29,14.13,47.67,1007.35,2022.00,2959.98,2777.15,3150.03,600.10,581.41,34.35,0000 0000 0000 0000 000000
2016-05-31 06:22:10,0.05,1.28,0.00,27.75,30.74,33.29,14.06,47.62,1007.39,2022.00,2958.88,2776.71,3149.30,599.76,581.15,34.40,0000 0000 0000 0000 000000
2016-05-31 06:27:11,0.05,1.29,0.00,27.76,30.77,33.32,14.01,47.58,1007.34,2022.00,2957.78,2775.99,3148.47,599.80,581.00,34.45,0000 0000 0000 0000 000000
2016-05-31 06:32:11,0.06,1.29,0.00,27.79,30.80,33.35,14.08,47.55,1007.34,2021.93,2956.54,2775.16,3147.53,599.81,581.00,34.50,0000 0000 0000 0000 000000
2016-05-31 06:37:13,0.06,1.29,0.00,27.80,30.82,33.37,14.09,47.56,1007.33,2021.91,2955.19,2774.30,3146.55,600.17,581.27,34.55,0000 0000 0000 0000 000000
2016-05-31 06:42:14,0.04,1.30,0.00,27.83,30.86,33.40,13.99,47.55,1007.04,2021.76,2953.94,2773.52,3145.60,599.76,580.66,34.60,0000 0000 0000 0000 000000
2016-05-31 06:47:15,-0.00,1.30,0.00,27.85,30.89,33.43,14.01,47.70,1007.00,2021.25,2952.81,2772.80,3144.73,599.80,580.73,34.65,0000 0000 0000 0000 000000
2016-05-31 06:52:16,0.04,1.30,0.00,27.90,30.92,33.46,14.07,47.78,1006.96,2021.09,2951.76,2772.03,3143.88,599.96,580.74,34.70,0000 0000 0000 0000 000000
2016-05-31 06:57:18,0.05,1.30,0.00,27.91,30.96,33.48,14.08,47.77,1006.85,2021.01,2950.74,2771.28,3143.00,600.32,580.88,34.75,0000 0000 0000 0000 000000
2016-05-31 07:02:19,0.06,1.30,0.00,27.92,30.99,33.51,13.97,47.82,1006.84,2021.00,2949.68,2770.63,3142.11,599.57,580.31,34.80,0000 0000 0000 0000 000000
2016-05-31 07:07:20,0.03,1.31,0.00,27.94,31.03,33.53,14.13,47.90,1006.84,2020.98,2948.70,2769.96,3141.32,600.42,581.02,34.85,0000 0000 0000 0000 000000
2016-05-31 07:12:22,0.06,1.31,0.00,27.96,31.06,33.56,13.95,47.83,1006.57,2020.91,2947.67,2769.13,3140.43,599.81,580.23,34.90,0000 0000 0000 0000 000000
2016-05-31 07:17:23,0.03,1.31,0.00,28.01,31.09,33.59,14.11,47.84,1006.40,2020.75,2946.63,2768.54,3139.68,600.12,580.35,34.95,0000 0000 0000 0000 000000
2016-05-31 07:22:24,-0.00,1.31,0.00,28.04,31.12,33.62,14.05,47.86,1006.52,2020.32,2945.69,2767.95,3138.89,600.06,580.36,35.00,0000 0000 0000 0000 000000
2016-05-31 07:27:25,0.03,1.31,0.00,28.07,31.16,33.64,14.12,47.88,1006.60,2020.03,2944.74,2767.11,3138.04,600.14,580.45,35.05,0000 0000 0000 0000 000000
2016-05-31 07:32:27,0.06,1.31,0.00,28.09,31.18,33.67,14.13,47.72,1006.78,2020.00,2943.80,2766.51,3137.18,600.06,580.31,35.11,0000 0000 0000 0000 000000
2016-05-31 07:37:28,0.06,1.32,0.00,28.12,31.21,33.70,14.08,47.81,1006.58,2020.00,2942.68,2765.81,3136.34,600.09,580.12,35.16,0000 0000 0000 0000 000000
2016-05-31 07:42:30,0.05,1.32,0.00,28.13,31.23,33.73,14.10,47.70,1006.69,2019.99,2941.48,2765.04,3135.40,600.10,580.28,35.21,0000 0000 0000 0000 000000
2016-05-31 07:47:31,0.05,1.32,0.00,28.14,31.25,33.74,13.99,47.77,1006.47,2019.89,2940.25,2764.22,3134.68,600.03,580.05,35.26,0000 0000 0000 0000 000000
2016-05-31 07:52:33,0.01,1.32,0.00,28.13,31.27,33.77,14.01,47.69,1006.72,2019.38,2938.83,2763.37,3133.72,599.83,580.02,35.31,0000 0000 0000 0000 000000
2016-05-31 07:57:34,0.03,1.33,0.00,28.12,31.30,33.77,14.14,47.67,1006.53,2019.22,2937.67,2762.76,3132.90,600.33,580.32,35.36,0000 0000 0000 0000 000000
2016-05-31 08:02:35,0.06,1.33,0.00,28.13,31.31,33.80,14.03,47.65,1006.38,2019.06,2936.19,2761.85,3131.85,599.82,579.83,35.41,0000 0000 0000 0000 000000
2016-05-31 08:07:36,0.09,1.33,0.00,28.14,31.32,33.82,14.02,47.63,1006.40,2019.02,2934.26,2760.83,3130.70,599.92,579.86,35.46,0000 0000 0000 0000 000000
2016-05-31 08:12:38,0.10,1.34,0.00,28.15,31.34,33.84,14.04,47.58,1006.48,2019.00,2932.13,2759.67,3129.34,599.92,580.01,35.51,0000 0000 0000 0000 000000
2016-05-31 08:17:39,0.09,1.34,0.00,28.16,31.35,33.85,14.12,47.50,1006.82,2019.00,2930.20,2758.65,3128.08,600.14,580.36,35.56,0000 0000 0000 0000 000000
2016-05-31 08:22:40,0.11,1.35,0.00,28.16,31.37,33.87,13.98,47.54,1006.84,2019.00,2927.90,2757.32,3126.55,599.73,579.93,35.61,0000 0000 0000 0000 000000
2016-05-31 08:27:41,0.10,1.35,0.00,28.16,31.37,33.89,14.03,47.54,1006.85,2019.00,2925.85,2755.95,3125.05,600.12,580.32,35.66,0000 0000 0000 0000 000000
2016-05-31 08:32:43,0.09,1.36,0.00,28.18,31.38,33.91,14.06,47.53,1006.97,2018.99,2923.92,2754.74,3123.63,600.13,580.35,35.71,0000 0000 0000 0000 000000
2016-05-31 08:37:44,0.11,1.36,0.00,28.18,31.40,33.92,14.09,47.51,1007.54,2018.97,2921.58,2753.25,3121.94,600.04,580.65,35.76,0000 0000 0000 0000 000000
2016-05-31 08:42:44,0.12,1.37,0.00,28.17,31.40,33.91,14.11,47.51,1007.63,2018.96,2919.28,2751.79,3120.30,600.13,580.70,35.81,0000 0000 0000 0000 000000
2016-05-31 08:47:46,0.10,1.38,0.00,28.17,31.42,33.94,14.09,47.55,1007.38,2018.87,2916.83,2750.39,3118.49,600.17,580.58,35.86,0000 0000 0000 0000 000000
2016-05-31 08:52:47,0.02,1.38,0.00,28.19,31.42,33.95,14.04,47.54,1007.36,2018.83,2915.79,2749.91,3117.84,599.86,580.25,35.91,0000 0000 0000 0000 000000
2016-05-31 08:57:48,0.03,1.38,0.00,28.17,31.45,33.96,14.10,47.58,1007.35,2018.58,2914.83,2749.11,3117.04,600.00,580.38,35.97,0000 0000 0000 0000 000000
2016-05-31 09:02:50,0.05,1.38,0.00,28.17,31.45,33.97,14.07,47.56,1007.35,2018.49,2913.85,2748.64,3116.37,599.96,580.41,36.02,0000 0000 0000 0000 000000
2016-05-31 09:07:50,0.02,1.38,0.00,28.17,31.46,33.97,14.01,47.52,1007.54,2018.39,2912.91,2748.01,3115.77,600.01,580.57,36.07,0000 0000 0000 0000 000000
2016-05-31 09:12:51,0.03,1.39,0.00,28.18,31.47,33.99,14.07,47.43,1007.63,2018.18,2912.02,2747.45,3115.03,600.21,580.81,36.12,0000 0000 0000 0000 000000
2016-05-31 09:17:53,0.04,1.39,0.00,28.17,31.47,34.00,14.04,47.52,1007.67,2018.18,2911.14,2746.99,3114.36,599.92,580.62,36.17,0000 0000 0000 0000 000000
2016-05-31 09:22:54,0.03,1.39,0.00,28.16,31.48,34.00,14.06,47.39,1007.63,2018.09,2910.16,2746.36,3113.89,600.11,580.76,36.22,0000 0000 0000 0000 000000
2016-05-31 09:27:55,0.04,1.39,0.00,28.15,31.50,34.00,14.12,47.42,1007.72,2018.11,2909.42,2745.99,3113.09,599.93,580.58,36.27,0000 0000 0000 0000 000000
2016-05-31 09:32:56,0.05,1.39,0.00,28.14,31.50,34.00,14.13,47.41,1007.79,2018.04,2908.48,2745.30,3112.57,599.97,580.75,36.32,0000 0000 0000 0000 000000
2016-05-31 09:37:58,0.02,1.40,0.00,28.14,31.50,34.01,13.98,47.42,1007.83,2018.02,2907.74,2744.94,3111.96,599.90,580.64,36.37,0000 0000 0000 0000 000000
2016-05-31 09:42:59,0.06,1.40,0.00,28.13,31.50,34.03,14.08,47.56,1007.85,2018.02,2906.69,2744.15,3111.12,599.73,580.50,36.42,0000 0000 0000 0000 000000
2016-05-31 09:48:01,0.03,1.40,0.00,28.13,31.50,34.02,14.09,47.52,1008.22,2018.03,2905.91,2743.87,3110.61,600.04,581.07,36.47,0000 0000 0000 0000 000000
2016-05-31 09:53:02,0.05,1.40,0.00,28.13,31.51,34.04,14.12,47.48,1008.55,2018.03,2905.02,2743.11,3109.99,600.05,581.29,36.52,0000 0000 0000 0000 000000
2016-05-31 09:58:03,0.05,1.41,0.00,28.12,31.52,34.05,14.08,47.46,1008.52,2018.05,2904.18,2742.70,3109.27,600.26,581.45,36.57,0000 0000 0000 0000 000000
2016-05-31 10:03:04,0.04,1.41,0.00,28.11,31.52,34.06,14.11,47.58,1008.47,2018.05,2903.33,2742.03,3108.63,600.05,581.26,36.62,0000 0000 0000 0000 000000
2016-05-31 10:08:05,0.04,1.41,0.00,28.10,31.52,34.06,14.10,47.52,1008.40,2018.02,2902.58,2741.36,3107.97,600.19,581.46,36.67,0000 0000 0000 0000 000000
2016-05-31 10:13:07,0.02,1.41,0.00,28.09,31.52,34.07,14.06,47.61,1008.33,2018.00,2902.01,2741.00,3107.27,599.81,580.94,36.72,0000 0000 0000 0000 000000
2016-05-31 10:18:08,0.03,1.41,0.00,28.08,31.54,34.08,14.03,47.67,1008.32,2018.02,2901.65,2740.59,3106.99,599.70,580.94,36.77,0000 0000 0000 0000 000000
2016-05-31 10:23:09,0.03,1.42,0.00,28.07,31.55,34.07,14.14,47.65,1008.27,2018.02,2901.04,2740.04,3106.29,600.04,581.23,36.82,0000 0000 0000 0000 000000
2016-05-31 10:28:11,0.00,1.42,0.00,28.05,31.55,34.08,14.06,47.98,1007.88,2018.00,2900.90,2739.94,3106.00,599.50,580.61,36.87,0000 0000 0000 0000 000000
2016-05-31 10:33:12,0.12,1.42,0.00,28.04,31.55,34.09,14.10,48.28,1007.87,2018.00,2899.65,2738.58,3104.72,599.92,580.94,36.93,0000 0000 0000 0000 000000
2016-05-31 10:38:13,0.05,1.42,0.00,28.01,31.55,34.15,14.09,48.31,1007.83,2018.00,2898.95,2737.17,3103.23,599.97,580.98,36.98,0000 0000 0000 0000 000000
2016-05-31 10:43:14,0.01,1.43,0.00,27.97,31.55,34.21,14.13,48.39,1007.58,2018.00,2898.31,2736.99,3103.00,599.86,580.83,37.03,0000 0000 0000 0000 000000
2016-05-31 10:48:15,0.01,1.43,0.00,27.92,31.53,34.24,14.07,48.41,1007.47,2018.00,2898.01,2736.84,3102.76,599.84,580.85,37.08,0000 0000 0000 0000 000000
2016-05-31 10:53:17,0.03,1.43,0.00,27.89,31.52,34.33,14.08,48.29,1007.42,2018.00,2897.95,2736.30,3102.18,599.68,580.79,37.13,0000 0000 0000 0000 000000
2016-05-31 10:58:18,0.01,1.43,0.00,27.84,31.51,34.38,14.16,48.30,1007.35,2018.00,2897.63,2736.07,3102.02,600.11,581.20,37.18,0000 0000 0000 0000 000000
2016-05-31 11:03:19,0.00,1.43,0.00,27.77,31.50,34.44,14.15,48.19,1007.36,2018.01,2897.21,2736.01,3102.00,599.78,581.00,37.23,0000 0000 0000 0000 000000
2016-05-31 11:08:21,0.00,1.43,0.00,27.71,31.47,34.44,14.17,48.79,1007.34,2018.01,2897.05,2736.00,3102.00,600.13,581.45,37.28,0000 0000 0000 0000 000000
2016-05-31 11:13:22,0.01,1.43,0.00,27.65,31.46,34.44,14.12,48.54,1007.34,2018.06,2897.00,2736.01,3102.00,600.01,581.46,37.33,0000 0000 0000 0000 000000
2016-05-31 11:18:23,0.01,1.43,0.00,27.58,31.43,34.40,14.17,48.80,1007.34,2018.14,2897.00,2736.00,3102.00,600.21,581.80,37.38,0000 0000 0000 0000 000000
2016-05-31 11:23:24,0.03,1.43,0.00,27.50,31.40,34.37,14.17,48.77,1007.51,2018.38,2897.00,2736.01,3102.00,599.98,581.88,37.43,0000 0000 0000 0000 000000
2016-05-31 11:28:25,0.03,1.43,0.00,27.42,31.37,34.35,14.20,48.60,1008.09,2018.80,2897.00,2736.01,3102.00,600.33,582.53,37.48,0000 0000 0000 0000 000000
2016-05-31 11:33:27,0.01,1.43,0.00,27.35,31.35,34.30,14.12,48.47,1008.20,2018.95,2896.99,2736.08,3102.01,599.74,582.31,37.53,0000 0000 0000 0000 000000
2016-05-31 11:38:28,-0.00,1.43,0.00,27.27,31.31,34.25,14.13,48.40,1007.98,2018.99,2896.99,2736.25,3102.01,599.64,582.42,37.58,0000 0000 0000 0000 000000
2016-05-31 11:43:29,-0.01,1.43,0.00,27.20,31.27,34.20,14.28,48.67,1007.92,2018.99,2896.99,2736.80,3102.15,600.24,582.98,37.63,0000 0000 0000 0000 000000
2016-05-31 11:48:30,-0.01,1.43,0.00,27.13,31.23,34.14,14.20,48.66,1008.26,2019.01,2897.01,2736.95,3102.62,599.88,582.75,37.68,0000 0000 0000 0000 000000
2016-05-31 11:53:32,0.00,1.43,0.00,27.06,31.19,34.08,14.23,48.63,1008.39,2019.07,2897.15,2736.99,3102.93,599.80,583.13,37.73,0000 0000 0000 0000 000000
2016-05-31 11:58:33,0.02,1.43,0.00,26.97,31.15,34.04,14.25,48.67,1008.54,2019.25,2897.08,2736.99,3102.96,599.87,583.42,37.78,0000 0000 0000 0000 000000
2016-05-31 12:03:34,0.09,1.44,0.00,26.90,31.10,33.97,14.25,48.37,1008.85,2019.76,2897.01,2736.42,3102.21,600.20,583.99,37.84,0000 0000 0000 0000 000000
2016-05-31 12:08:35,-0.00,1.44,0.00,26.84,31.06,33.94,14.21,47.90,1009.28,2019.98,2897.02,2736.33,3102.06,599.94,584.17,37.89,0000 0000 0000 0000 000000
2016-05-31 12:13:37,-0.02,1.44,0.00,26.78,31.01,33.89,14.22,48.24,1009.40,2019.99,2897.13,2736.86,3102.35,600.13,584.47,37.94,0000 0000 0000 0000 000000
2016-05-31 12:18:38,-0.01,1.44,0.00,26.73,30.96,33.81,14.24,48.52,1009.75,2020.01,2897.72,2736.99,3102.90,599.61,584.26,37.99,0000 0000 0000 0000 000000
2016-05-31 12:23:39,0.00,1.44,0.00,26.65,30.91,33.76,14.23,48.58,1009.75,2020.06,2897.96,2737.00,3102.99,599.99,584.82,38.04,0000 0000 0000 0000 000000
2016-05-31 12:28:40,0.07,1.44,0.00,26.62,30.87,33.70,14.20,48.58,1009.77,2020.54,2897.83,2736.92,3102.86,599.43,584.21,38.09,0000 0000 0000 0000 000000
2016-05-31 12:33:41,0.08,1.44,0.00,26.58,30.82,33.67,14.28,48.48,1009.77,2020.93,2897.13,2736.15,3102.08,599.87,584.82,38.14,0000 0000 0000 0000 000000
2016-05-31 12:38:43,-0.02,1.44,0.00,26.51,30.77,33.62,14.27,48.88,1009.78,2020.99,2897.42,2736.39,3102.23,599.96,585.03,38.19,0000 0000 0000 0000 000000
2016-05-31 12:43:44,-0.02,1.44,0.00,26.48,30.72,33.54,14.29,48.70,1009.83,2020.99,2897.92,2736.89,3102.78,600.21,585.42,38.24,0000 0000 0000 0000 000000
2016-05-31 12:48:45,0.01,1.44,0.00,26.48,30.67,33.48,14.21,48.75,1009.91,2021.07,2897.99,2736.99,3102.98,599.78,585.06,38.29,0000 0000 0000 0000 000000
2016-05-31 12:53:47,0.05,1.44,0.00,26.47,30.62,33.40,14.22,48.94,1009.92,2021.49,2897.99,2736.99,3102.99,599.94,585.27,38.34,0000 0000 0000 0000 000000